Regional Weather Roundup
Issued by NWS New Orleans/Baton Rouge, LA

Home | Current Version | Previous Version | Graphics & Text | Print | Product List | Glossary On
Versions: 1 2 3 4 5 6 7 8 9 10 11 12 13 14 15 16 17 18 19 20 21 22 23 24 25 26 27 28 29 30 31 32 33 34 35 36 37 38 39 40 41 42 43 44 45 46 47 48 49 50
589
ASUS44 KLIX 222005
RWRLIX
NEW ORLEANS REGIONAL WEATHER ROUNDUP
NATIONAL WEATHER SERVICE NEW ORLEANS LA
300 PM CDT WED OCT 22 2014

NOTE: "FAIR" INDICATES FEW OR NO CLOUDS BELOW 12,000 FEET WITH NO
      SIGNIFICANT WEATHER AND/OR OBSTRUCTIONS TO VISIBILITY.
      SKY/WX - SKY CONDITION AND SIGNIFICANT WEATHER.
      TMP - AIR TEMPERATURE.     DP    - DEWPOINT TEMPERATURE.
      RH  - RELATIVE HUMIDITY.   PRES  - PRESSURE.
      HI  - HEAT INDEX.          WCI   - WIND CHILL INDEX.

*  THESE STATIONS ARE NOT NWS OR FAA STATIONS AND ARE NOT UNDER
   NWS QUALITY CONTROL.

LAZ038-040-048-061>063-065>067-069-222100-
SOUTHEAST LOUISIANA

CITY           SKY/WX    TMP DP  RH WIND       PRES   REMARKS
N.O. AUDUBON   NOT AVBL
N.O. INTL ARPT SUNNY     78  55  44 N9        30.04S
N.O. LAKEFRONT SUNNY     79  55  43 N6        30.04F
N.O. DOWNTOWN*   N/A     79  52  38 NE10      30.04S
SLIDELL        SUNNY     80  51  36 NE8       30.03F
BATON ROUGE    SUNNY     80  51  36 N8        30.05F
BOOTHVILLE     SUNNY     76  60  57 NE9G18    30.02F
BELLE CHASSE   SUNNY     78  53  41 E13       30.03S
BOGALUSA*        N/A     81  46  29 NE7       30.06F
NEW ROADS*       N/A     79  52  38 N5        30.06S
GONZALES*        N/A     79  56  44 CALM      30.03F
HAMMOND*       SUNNY     81  46  30 N10       30.05F
HOUMA*         SUNNY     81  57  44 NE8       30.02F
PORT FOURCHON* CLEAR     77  59  53 NE17      30.05S

$$

MSZ070-080>082-222100-
SOUTHERN MISSISSIPPI

CITY           SKY/WX    TMP DP  RH WIND       PRES   REMARKS
MCCOMB         SUNNY     78  46  32 N9        30.07F
GULFPORT       SUNNY     80  52  37 VRB7      30.02F
BILOXI         SUNNY     79  51  37 N7        30.02F
PASCAGOULA     SUNNY     79  48  33 N9        30.02F

$$

COASTAL OBSERVATIONS
LAKE AND NEARSHORE STATIONS

STATION/POSITION TIME  TEMP    WIND        PRES    WAVE
                       AIR SEA DIR/SP/G            HT/PER
                 (UTC) (F)     (DEG/KT/KT) (MB)    (FT/S)
PASCAGOULA       2000   78      30/  8/ 14 1016.1
WAVELAND YACHT   2000   73     100/  5/  8 1016.2
GRAND ISLE       2000   75 75   70/ 12/ 15 1017.1
SOUTHWEST PASS   2000   84 83              1016.2
NEW CANAL        2000   74 72   10/  5/  5 1017.6
SHELL BEACH      2000   74 69   50/ 12/ 14 1016.8

OFFSHORE STATIONS

STATION/POSITION TIME  TEMP    WIND        PRES    WAVE
                       AIR SEA DIR/SP/G            HT/PER
                 (UTC) (F)     (DEG/KT/KT) (MB)    (FT/S)
64 S DAUPHIN ISL 1938   74 80   50/ 14/ 19 1016.4    3/ 5

$$




USA.gov is the U.S. government's official web portal to all federal, state and local government web resources and services.